Weather History for Fort Huachuca, AZ

Change the Weather History Date:

Wednesday, January 2, 2013

  Actual Average (KFHU) Record (KFHU)
Temperature  
Mean Temperature 37 °F -  
Max Temperature 50 °F 59 °F 73 °F (1998)
Min Temperature 24 °F 37 °F 17 °F (1983)
Degree Days  
Heating Degree Days 28    
Moisture  
Dew Point 21 °F    
Average Humidity 54    
Maximum Humidity 77    
Minimum Humidity 31    
Precipitation  
Precipitation 0.00 in - - ()
Sea Level Pressure  
Sea Level Pressure 29.99 in    
Wind  
Wind Speed 11 mph (East)    
Max Wind Speed 17 mph    
Max Gust Speed 18 mph    
Averages and records for this station are not official NWS values.
T = Trace of Precipitation, MM = Missing Value Source: NWS Daily Summary

Daily Weather History Graph

Daily Weather History Graph

Search for Another Location

Airport:

Trip Planner

Search our weather history database for the weather conditions in past years. The results will help you decide how hot, cold, wet, or windy it might be!

Date:

Astronomy

Jan. 02, 2013 Rise Set
Actual Time 7:21 AM MST 5:30 PM MST
Civil Twilight 6:54 AM MST 5:57 PM MST
Nautical Twilight 6:24 AM MST 6:27 PM MST
Astronomical Twilight 5:55 AM MST 6:57 PM MST
Moon 10:44 PM MST (1/2) 10:25 AM MST (1/2)
Length of Visible Light 11h 02m
Length of Day
10h 08m
Waning Gibbous, 74% of the Moon is Illuminated
Jan 2
Waning Gibbous
Jan 4
Last Quarter
Jan 11
New
Jan 18
First Quarter
Jan 26
Full

Hourly Weather History & Observations

Time (MST) Temp. Windchill Dew Point Humidity Pressure Visibility Wind Dir Wind Speed Gust Speed Precip Events Conditions
12:56 AM 30.0 °F 20.0 °F 19.9 °F 66% 30.03 in - East 12.7 mph - N/A   Clear
1:56 AM 28.9 °F 19.8 °F 19.0 °F 67% 30.03 in - East 10.4 mph - N/A   Clear
2:56 AM 28.0 °F 20.0 °F 19.0 °F 69% 30.03 in - East 8.1 mph - N/A   Clear
4:56 AM 26.1 °F 16.8 °F 19.0 °F 75% 30.02 in - ENE 9.2 mph - N/A   Clear
5:56 AM 24.1 °F 15.2 °F 18.0 °F 77% 30.05 in - East 8.1 mph - N/A   Clear
6:56 AM 25.0 °F 15.5 °F 18.0 °F 75% 30.04 in - ENE 9.2 mph - N/A   Clear
7:56 AM 26.1 °F 16.2 °F 19.0 °F 75% 30.05 in - ENE 10.4 mph - N/A   Clear
9:56 AM 39.0 °F 29.9 °F 21.0 °F 49% 30.03 in - ENE 17.3 mph - N/A   Clear
10:56 AM 42.1 °F 33.9 °F 21.0 °F 43% 30.02 in - ENE 17.3 mph - N/A   Clear
11:56 AM 45.0 °F 38.2 °F 21.0 °F 39% 29.98 in - East 15.0 mph - N/A   Clear
12:56 PM 48.0 °F - 21.0 °F 34% 29.94 in - East 12.7 mph - N/A   Clear
1:56 PM 48.9 °F - 19.9 °F 32% 29.93 in - East 13.8 mph - N/A   Clear
2:56 PM 50.0 °F - 21.0 °F 32% 29.93 in - East 10.4 mph 18.4 mph N/A   Clear
3:56 PM 50.0 °F - 19.9 °F 31% 29.94 in - East 11.5 mph - N/A   Clear
4:56 PM 46.9 °F - 21.0 °F 36% 29.94 in - ESE 8.1 mph - N/A   Clear
5:56 PM 39.0 °F 32.3 °F 23.0 °F 53% 29.99 in - SE 10.4 mph - N/A   Clear
6:56 PM 37.9 °F 31.5 °F 23.0 °F 55% 29.99 in - ESE 9.2 mph - N/A   Clear
7:56 PM 39.9 °F 33.9 °F 23.0 °F 51% 29.99 in - SE 9.2 mph - N/A   Clear
8:56 PM 39.0 °F 35.7 °F 23.0 °F 53% 29.96 in - SSE 4.6 mph - N/A   Clear
9:56 PM 33.1 °F - 23.0 °F 66% 29.98 in - Calm Calm - N/A   Clear
10:56 PM 34.0 °F 31.0 °F 23.0 °F 64% 29.96 in - East 3.5 mph - N/A   Clear